Location: Rounton
(54.4000°N, 1.3500°W)
Time: 18:38:04
(UTC+01:00)

S-56A Canister/Altair - Pass Details

Date: 10 September 2024
Orbit: 636 x 2487 km, 38.9° (Epoch: 06 October)

Event Time Altitude Azimuth Distance (km) Brightness Sun altitude
Rises 03:55:27 0° 268° (W) 5,248 - -20.8°
Reaches altitude 10° 04:01:14 10° 246° (WSW) 4,608 - -20.1°
Maximum altitude 04:06:42 14° 221° (SW) 4,547 - -19.6°
Drops below altitude 10° 04:12:38 10° 196° (SSW) 5,052 - -18.9°
Exits shadow 04:13:50 - 192° (SSW) 5,208 11.3 -18.8°
Sets 04:19:46 0° 175° (S) 6,150 11.8 -18.1°
